Terminal Aerodrome Forecast
Issued by NWS St Louis, MO

Home | Current Version | Previous Version | Text Only | Print | Product List | Glossary On
Versions: 1 2 3 4 5 6 7 8 9 10 11 12 13 14 15 16 17 18
000
FTUS43 KLSX 190500
TAFCOU
TAF
KCOU 190520Z 1906/2006 09005KT P6SM FEW040
      TEMPO 1906/1909 4SM BR
     FM190900 00000KT 2SM BR SCT010
     FM191500 15008KT P6SM FEW040=

USA.gov is the U.S. government's official web portal to all federal, state and local government web resources and services.